GW5689 Weather Reports


time (UTC)temp
C
wind
direction
speed
KPH
gust
KPH
rain 1hr
cm
rain 24hr
cm
rain mn
cm
humidity
%
barometer
mb
20260508023708 9 39 1.6 3.2 0.00 0.00 0.00 64 1011.7
20260508023206 10 31 1.6 3.2 0.00 0.00 0.00 68 1011.8
20260508022701 10 37 0.0 0.0 0.00 0.00 0.00 66 1012.0
20260508022158 11 45 0.0 1.6 0.00 0.00 0.00 62 1011.8
20260508021654 11 37 0.0 0.0 0.00 0.00 0.00 57 1011.8
20260508021149 12 48 0.0 0.0 0.00 0.00 0.00 53 1011.6
20260508020648 12 46 3.2 9.7 0.00 0.00 0.00 50 1011.5
20260508020145 12 43 1.6 3.2 0.00 0.00 0.00 52 1011.8
20260508015642 12 47 0.0 3.2 0.00 0.00 0.00 51 1011.3
20260508015139 12 57 0.0 4.8 0.00 0.00 0.00 51 1011.4
20260508014635 12 57 1.6 3.2 0.00 0.00 0.00 51 1011.5
20260508014132 11 50 3.2 6.4 0.00 0.00 0.00 53 1011.5
20260508013628 11 226 4.8 4.8 0.00 0.00 0.00 55 1011.4
20260508013125 11 24 0.0 3.2 0.00 0.00 0.00 63 1011.3
20260508012623 11 45 0.0 1.6 0.00 0.00 0.00 64 1011.4
20260508012120 10 51 0.0 1.6 0.00 0.00 0.00 66 1011.3
20260508011618 11 44 1.6 1.6 0.00 0.00 0.00 64 1011.1
20260508011115 11 50 0.0 3.2 0.00 0.00 0.00 64 1010.8
20260508010611 11 56 0.0 0.0 0.00 0.00 0.00 58 1010.9
20260508010110 12 41 0.0 0.0 0.00 0.00 0.00 55 1010.9
20260508005606 12 43 0.0 1.6 0.00 0.00 0.00 52 1010.8
20260508005102 12 29 0.0 1.6 0.00 0.00 0.00 52 1010.6
20260508004558 13 36 0.0 1.6 0.00 0.00 0.00 52 1010.7
20260508004055 14 43 0.0 0.0 0.00 0.00 0.00 47 1010.4
20260508003552 14 53 0.0 1.6 0.00 0.00 0.00 45 1010.5
20260508003049 14 180 4.8 11.3 0.00 0.00 0.00 43 1010.4
20260508002545 14 250 4.8 9.7 0.00 0.00 0.00 45 1010.4
20260508002043 14 50 0.0 6.4 0.00 0.00 0.00 45 1010.3
20260508001538 15 199 8.0 11.3 0.00 0.00 0.00 43 1010.3
20260508001035 15 174 6.4 9.7 0.00 0.00 0.00 42 1009.9
20260508000531 15 191 1.6 4.8 0.00 0.00 0.00 42 1010.1
20260508000029 15 55 1.6 3.2 0.00 0.00 0.00 42 1010.1
20260507235525 15 218 3.2 9.7 0.00 0.00 0.00 41 1009.9
20260507235022 15 92 4.8 6.4 0.00 0.00 0.00 41 1009.9
20260507234519 15 160 3.2 6.4 0.00 0.00 0.00 41 1009.5
20260507234015 15 225 3.2 9.7 0.00 0.00 0.00 42 1009.4
20260507233512 16 48 0.0 3.2 0.00 0.00 0.00 43 1009.5
20260507233011 16 45 1.6 1.6 0.00 0.00 0.00 44 1009.6
20260507232507 16 51 0.0 4.8 0.00 0.00 0.00 44 1009.4
20260507232004 16 30 1.6 4.8 0.00 0.00 0.00 41 1009.3
20260507231500 16 222 8.0 11.3 0.00 0.00 0.00 41 1009.1
20260507230957 16 169 1.6 9.7 0.00 0.00 0.00 41 1009.2
20260507230454 17 52 1.6 6.4 0.00 0.00 0.00 41 1009.3
20260507225949 17 79 3.2 6.4 0.00 0.00 0.00 40 1009.0
20260507225446 17 165 4.8 9.7 0.00 0.00 0.00 40 1008.9
20260507224942 17 92 3.2 9.7 0.00 0.00 0.00 39 1008.8
20260507224438 17 310 3.2 9.7 0.00 0.00 0.00 41 1009.1
20260507223935 17 193 0.0 3.2 0.00 0.00 0.00 42 1008.8
20260507223431 17 187 4.8 6.4 0.00 0.00 0.00 41 1008.7
20260507222928 17 117 3.2 6.4 0.00 0.00 0.00 42 1008.7
20260507222425 17 168 1.6 6.4 0.00 0.00 0.00 41 1008.5
20260507221922 17 46 1.6 4.8 0.00 0.00 0.00 42 1008.5
20260507221418 18 81 0.0 6.4 0.00 0.00 0.00 42 1008.4
20260507220914 18 52 0.0 1.6 0.00 0.00 0.00 41 1008.4
20260507220412 18 35 6.4 12.9 0.00 0.00 0.00 39 1008.4
20260507215908 18 35 3.2 3.2 0.00 0.00 0.00 41 1008.1
20260507215405 18 68 3.2 3.2 0.00 0.00 0.00 41 1007.9
20260507214902 18 42 1.6 4.8 0.00 0.00 0.00 41 1008.1
20260507214400 19 140 6.4 6.4 0.00 0.00 0.00 38 1008.2
20260507213855 19 87 1.6 6.4 0.00 0.00 0.00 41 1008.0
20260507213352 19 156 3.2 9.7 0.00 0.00 0.00 38 1008.0
20260507212849 20 28 3.2 9.7 0.00 0.00 0.00 38 1008.2
20260507212345 20 177 3.2 4.8 0.00 0.00 0.00 39 1008.0
20260507211842 21 179 1.6 6.4 0.00 0.00 0.00 38 1008.0
20260507211339 21 54 0.0 6.4 0.00 0.00 0.00 37 1008.0
20260507210835 21 252 4.8 6.4 0.00 0.00 0.00 37 1007.6
20260507210332 21 328 1.6 4.8 0.00 0.00 0.00 36 1007.7
20260507205829 21 314 3.2 4.8 0.00 0.00 0.00 36 1008.0
20260507205326 20 29 1.6 6.4 0.00 0.00 0.00 39 1008.0
20260507204822 20 81 1.6 6.4 0.00 0.00 0.00 40 1007.9
20260507204319 20 44 0.0 4.8 0.00 0.00 0.00 40 1007.8
20260507203817 21 21 3.2 4.8 0.00 0.00 0.00 39 1007.7
20260507203315 22 204 6.4 9.7 0.00 0.00 0.00 35 1007.9
20260507202811 21 35 1.6 1.6 0.00 0.00 0.00 39 1007.7
20260507202307 21 42 3.2 6.4 0.00 0.00 0.00 38 1007.6
20260507201802 21 358 3.2 4.8 0.00 0.00 0.00 43 1008.0
20260507201258 21 41 0.0 1.6 0.00 0.00 0.00 51 1007.6
20260507200755 20 52 1.6 3.2 0.00 0.00 0.00 51 1007.7
20260507200251 20 58 0.0 1.6 0.00 0.00 0.00 52 1007.8
20260507195747 20 130 1.6 4.8 0.00 0.00 0.00 53 1007.9
20260507195245 18 49 0.0 1.6 0.00 0.00 0.00 55 1008.1
20260507194742 18 130 3.2 3.2 0.00 0.00 0.00 56 1008.1
20260507194238 18 59 0.0 0.0 0.00 0.00 0.00 55 1008.1
20260507193735 18 143 0.0 1.6 0.00 0.00 0.00 57 1008.1
20260507193231 18 42 3.2 3.2 0.00 0.00 0.00 56 1008.2
20260507192727 18 61 1.6 1.6 0.00 0.00 0.00 53 1008.2
20260507192224 18 52 0.0 0.0 0.00 0.00 0.00 53 1008.3
20260507191720 20 53 0.0 1.6 0.00 0.00 0.00 47 1008.5
20260507191218 18 51 0.0 1.6 0.00 0.00 0.00 49 1008.5
20260507190714 18 49 0.0 1.6 0.00 0.00 0.00 49 1008.4
20260507190213 18 66 1.6 3.2 0.00 0.00 0.00 51 1008.4
20260507185711 18 88 0.0 1.6 0.00 0.00 0.00 48 1008.2
20260507185208 18 45 1.6 3.2 0.00 0.00 0.00 49 1008.7
20260507184705 18 65 0.0 4.8 0.00 0.00 0.00 48 1008.7
20260507184203 18 115 3.2 3.2 0.00 0.00 0.00 50 1008.5
20260507183659 19 10 1.6 3.2 0.00 0.00 0.00 49 1008.5
20260507183156 19 77 1.6 3.2 0.00 0.00 0.00 49 1008.6
20260507182654 19 139 4.8 6.4 0.00 0.00 0.00 47 1008.6
20260507182149 20 48 1.6 4.8 0.00 0.00 0.00 48 1008.6
20260507181646 18 24 1.6 3.2 0.00 0.00 0.00 50 1008.8
20260507181142 17 154 1.6 3.2 0.00 0.00 0.00 52 1008.6
20260507180638 17 52 0.0 3.2 0.00 0.00 0.00 51 1009.0
20260507180136 17 62 3.2 3.2 0.00 0.00 0.00 51 1009.0
20260507175631 17 137 1.6 3.2 0.00 0.00 0.00 51 1009.1
20260507175129 17 49 0.0 1.6 0.00 0.00 0.00 53 1009.2
20260507174626 17 60 1.6 3.2 0.00 0.00 0.00 56 1009.4
20260507174124 16 49 0.0 1.6 0.00 0.00 0.00 55 1009.2
20260507173621 16 173 3.2 4.8 0.00 0.00 0.00 56 1009.5
20260507173118 16 50 0.0 1.6 0.00 0.00 0.00 53 1009.6
20260507172614 17 63 0.0 0.0 0.00 0.00 0.00 55 1009.7
20260507172111 17 44 3.2 4.8 0.00 0.00 0.00 55 1010.1
20260507171606 17 53 1.6 4.8 0.00 0.00 0.00 54 1009.8
20260507171103 17 177 1.6 4.8 0.00 0.00 0.00 55 1009.8
20260507170600 17 37 1.6 1.6 0.00 0.00 0.00 56 1009.9
20260507170057 17 170 1.6 3.2 0.00 0.00 0.00 53 1010.1
20260507165552 17 52 1.6 6.4 0.00 0.00 0.00 54 1010.2
20260507165044 18 41 0.0 3.2 0.00 0.00 0.00 52 1010.2
20260507164540 18 35 0.0 1.6 0.00 0.00 0.00 49 1010.5
20260507164037 18 72 3.2 6.4 0.00 0.00 0.00 53 1010.4
20260507163534 17 13 1.6 6.4 0.00 0.00 0.00 56 1010.4
20260507163032 16 85 3.2 6.4 0.00 0.00 0.00 58 1010.5
20260507162526 17 105 0.0 6.4 0.00 0.00 0.00 52 1010.7
20260507162023 17 59 1.6 11.3 0.00 0.00 0.00 57 1010.5
20260507161520 16 48 1.6 9.7 0.00 0.00 0.00 58 1010.6
20260507161017 16 31 1.6 6.4 0.00 0.00 0.00 60 1011.1
20260507160512 17 212 3.2 4.8 0.00 0.00 0.00 56 1010.9
20260507160009 16 60 3.2 6.4 0.00 0.00 0.00 58 1011.2
20260507155504 15 54 1.6 4.8 0.00 0.00 0.00 62 1011.0
20260507155002 15 216 3.2 4.8 0.00 0.00 0.00 61 1011.1
20260507154458 15 35 1.6 3.2 0.00 0.00 0.00 63 1011.3
20260507153955 15 61 1.6 4.8 0.00 0.00 0.00 63 1011.3
20260507153452 15 4 1.6 4.8 0.00 0.00 0.00 60 1011.2
20260507152949 15 53 1.6 3.2 0.00 0.00 0.00 61 1011.1
20260507152444 15 38 4.8 12.9 0.00 0.00 0.00 60 1011.5
20260507151941 15 126 1.6 3.2 0.00 0.00 0.00 60 1011.2
20260507151437 14 59 0.0 3.2 0.00 0.00 0.00 63 1011.4
20260507150934 15 49 1.6 4.8 0.00 0.00 0.00 63 1011.5
20260507150431 15 263 3.2 3.2 0.00 0.00 0.00 61 1011.6
20260507145927 14 79 1.6 3.2 0.00 0.00 0.00 66 1011.6
20260507145423 14 82 1.6 3.2 0.00 0.00 0.00 66 1012.0
20260507144921 14 102 1.6 3.2 0.00 0.00 0.00 66 1011.8
20260507144417 12 57 0.0 1.6 0.00 0.00 0.00 69 1011.9
20260507143914 12 57 0.0 1.6 0.00 0.00 0.00 70 1011.8
20260507143412 12 52 0.0 1.6 0.00 0.00 0.00 72 1012.1
20260507142908 12 52 0.0 0.0 0.00 0.00 0.00 72 1012.2
20260507142404 11 48 0.0 0.0 0.00 0.00 0.00 76 1012.4
20260507141901 11 37 1.6 3.2 0.00 0.00 0.00 75 1012.5
20260507141357 11 30 0.0 3.2 0.00 0.00 0.00 75 1012.5
20260507140854 11 56 0.0 3.2 0.00 0.00 0.00 77 1012.4
20260507140351 11 52 0.0 3.2 0.00 0.00 0.00 76 1012.3
20260507135849 11 61 0.0 1.6 0.00 0.00 0.00 77 1012.6
20260507135345 11 44 0.0 3.2 0.00 0.00 0.00 78 1012.5
20260507134843 11 52 0.0 3.2 0.00 0.00 0.00 79 1012.4
20260507134339 11 58 0.0 0.0 0.00 0.00 0.00 78 1012.7
20260507133835 11 43 1.6 3.2 0.00 0.00 0.00 78 1012.6
20260507133330 11 41 0.0 1.6 0.00 0.00 0.00 79 1012.6
20260507132829 11 84 0.0 0.0 0.00 0.00 0.00 79 1013.1
20260507132325 11 45 3.2 3.2 0.00 0.00 0.00 80 1012.8
20260507131823 11 67 1.6 3.2 0.00 0.00 0.00 80 1013.0
20260507131319 11 42 0.0 0.0 0.00 0.00 0.00 82 1013.0
20260507130816 11 52 0.0 3.2 0.00 0.00 0.00 81 1013.0
20260507130313 11 56 0.0 1.6 0.00 0.00 0.00 82 1013.0
20260507125812 11 45 0.0 1.6 0.00 0.00 0.00 81 1012.8
20260507125309 11 48 0.0 0.0 0.00 0.00 0.00 82 1013.0
20260507124806 11 58 0.0 1.6 0.00 0.00 0.00 81 1012.8
20260507124302 11 47 0.0 3.2 0.00 0.00 0.00 81 1012.8
20260507123801 11 55 0.0 0.0 0.00 0.00 0.00 81 1012.6
20260507123258 11 54 1.6 1.6 0.00 0.00 0.00 80 1012.7
20260507122754 11 60 1.6 1.6 0.00 0.00 0.00 80 1012.5
20260507122249 11 39 0.0 1.6 0.00 0.00 0.00 81 1012.5
20260507121746 11 31 1.6 1.6 0.00 0.00 0.00 81 1012.5
20260507121241 11 50 1.6 4.8 0.00 0.00 0.00 81 1012.4
20260507120738 11 74 1.6 1.6 0.00 0.00 0.00 80 1012.3
20260507120235 11 35 0.0 1.6 0.00 0.00 0.00 82 1012.2
20260507115731 11 48 0.0 0.0 0.00 0.00 0.00 84 1012.4
20260507115227 11 46 0.0 0.0 0.00 0.00 0.00 84 1012.3
20260507114722 11 58 0.0 0.0 0.00 0.00 0.00 84 1012.2
20260507114220 11 53 0.0 0.0 0.00 0.00 0.00 84 1012.3
20260507113718 11 56 0.0 0.0 0.00 0.00 0.00 85 1012.2
20260507113214 11 55 0.0 0.0 0.00 0.00 0.00 85 1012.2
20260507112712 11 55 0.0 0.0 0.00 0.00 0.00 85 1012.1
20260507112209 11 72 0.0 1.6 0.00 0.00 0.00 86 1011.8
20260507111706 11 56 0.0 0.0 0.00 0.00 0.00 86 1012.1
20260507111203 11 55 0.0 1.6 0.00 0.00 0.00 86 1012.1
20260507110658 11 66 0.0 1.6 0.00 0.00 0.00 85 1011.9
20260507110156 10 58 0.0 1.6 0.00 0.00 0.00 87 1011.8
20260507105653 10 42 0.0 0.0 0.00 0.00 0.00 88 1012.1
20260507105148 10 49 0.0 0.0 0.00 0.00 0.00 88 1011.8
20260507104646 10 45 0.0 0.0 0.00 0.00 0.00 89 1011.9
20260507104142 10 45 0.0 0.0 0.00 0.00 0.00 89 1011.8
20260507103638 10 47 0.0 0.0 0.00 0.00 0.00 90 1011.9
20260507103135 10 44 0.0 0.0 0.00 0.00 0.00 89 1011.9
20260507102632 10 49 0.0 0.0 0.00 0.00 0.00 90 1011.8
20260507102128 10 49 0.0 0.0 0.00 0.00 0.00 90 1011.7
20260507101624 10 48 0.0 0.0 0.00 0.00 0.00 89 1011.7
20260507101120 10 48 0.0 0.0 0.00 0.00 0.00 90 1011.8
20260507100618 10 53 0.0 0.0 0.00 0.00 0.00 89 1011.8
20260507100115 10 51 0.0 0.0 0.00 0.00 0.00 89 1011.4
20260507095613 10 48 0.0 0.0 0.00 0.00 0.00 89 1011.6
20260507095109 10 52 0.0 0.0 0.00 0.00 0.00 89 1011.7
20260507094605 10 50 0.0 0.0 0.00 0.00 0.00 89 1011.6
20260507094103 10 54 0.0 0.0 0.00 0.00 0.00 89 1011.2
20260507093600 10 54 0.0 0.0 0.00 0.00 0.00 88 1011.3
20260507093059 10 47 0.0 0.0 0.00 0.00 0.00 87 1011.5
20260507092555 10 48 0.0 0.0 0.00 0.00 0.00 87 1011.4
20260507092051 10 50 0.0 0.0 0.00 0.00 0.00 86 1011.4
20260507091548 10 53 0.0 0.0 0.00 0.00 0.00 86 1011.5
20260507091044 10 58 0.0 0.0 0.00 0.00 0.00 86 1011.5
20260507090540 11 57 0.0 0.0 0.00 0.00 0.00 85 1011.6
20260507090037 11 48 0.0 3.2 0.00 0.00 0.00 84 1011.5
20260507085535 11 47 0.0 1.6 0.00 0.00 0.00 83 1011.3
20260507085031 11 100 0.0 3.2 0.00 0.00 0.00 82 1011.3
20260507084528 11 56 0.0 0.0 0.00 0.00 0.00 82 1011.3
20260507084025 11 90 0.0 1.6 0.00 0.00 0.00 83 1011.0
20260507083521 11 44 0.0 3.2 0.00 0.00 0.00 83 1010.8
20260507083018 11 54 0.0 0.0 0.00 0.00 0.00 82 1011.0
20260507082514 11 53 0.0 1.6 0.00 0.00 0.00 83 1011.0
20260507082010 11 52 0.0 1.6 0.00 0.00 0.00 83 1011.3
20260507081507 11 60 0.0 1.6 0.00 0.00 0.00 83 1011.3
20260507081004 11 32 1.6 1.6 0.00 0.00 0.00 83 1011.4
20260507080459 11 46 0.0 0.0 0.00 0.00 0.00 84 1011.4
20260507075955 11 54 0.0 1.6 0.00 0.00 0.00 84 1011.5
20260507075452 12 34 1.6 1.6 0.00 0.00 0.00 83 1011.6
20260507074948 12 50 0.0 3.2 0.00 0.00 0.00 83 1011.7
20260507074445 12 65 1.6 3.2 0.00 0.00 0.00 84 1011.5
20260507073943 12 68 0.0 4.8 0.00 0.00 0.00 84 1011.1
20260507073439 12 68 1.6 3.2 0.00 0.00 0.00 84 1011.3
20260507072936 12 41 0.0 1.6 0.00 0.00 0.00 84 1011.2
20260507072434 12 54 0.0 0.0 0.00 0.00 0.00 84 1011.4
20260507071931 12 43 0.0 1.6 0.00 0.00 0.00 84 1011.0
20260507071428 12 50 0.0 1.6 0.00 0.00 0.00 85 1010.9
20260507070924 12 81 0.0 3.2 0.00 0.00 0.00 85 1011.0
20260507070422 12 49 0.0 4.8 0.00 0.00 0.00 84 1010.7
20260507065918 12 20 1.6 4.8 0.00 0.00 0.00 85 1011.1
20260507065415 12 117 3.2 3.2 0.00 0.00 0.00 85 1011.0
20260507064912 12 58 1.6 3.2 0.00 0.00 0.00 84 1011.1
20260507064410 12 53 1.6 6.4 0.00 0.00 0.00 85 1011.1
20260507063908 12 52 0.0 3.2 0.00 0.00 0.00 84 1011.1
20260507063405 12 32 3.2 3.2 0.00 0.00 0.00 84 1011.2
20260507062902 12 127 3.2 3.2 0.00 0.00 0.00 84 1011.2
20260507062359 13 22 3.2 6.4 0.00 0.00 0.00 84 1011.1
20260507061856 13 42 0.0 4.8 0.00 0.00 0.00 84 1011.3
20260507061354 13 26 1.6 4.8 0.00 0.00 0.00 84 1011.2
20260507060853 13 48 1.6 3.2 0.00 0.00 0.00 84 1011.3
20260507060349 13 57 0.0 1.6 0.00 0.00 0.00 84 1010.9
20260507055846 13 33 1.6 3.2 0.00 0.00 0.00 84 1011.3
20260507055340 13 61 1.6 4.8 0.00 0.00 0.00 84 1011.4
20260507054838 13 46 0.0 0.0 0.00 0.00 0.00 84 1011.6
20260507054334 14 52 1.6 3.2 0.00 0.00 0.00 84 1011.4
20260507053831 14 72 1.6 3.2 0.00 0.00 0.00 84 1011.1
20260507053329 14 111 1.6 4.8 0.00 0.00 0.00 84 1011.1
20260507052828 14 52 3.2 4.8 0.00 0.00 0.00 84 1011.1
20260507052324 14 72 1.6 6.4 0.00 0.00 0.00 84 1010.9
20260507051822 14 59 0.0 3.2 0.00 0.00 0.00 83 1010.7
20260507051319 15 57 0.0 1.6 0.00 0.00 0.00 84 1010.6
20260507050816 15 171 3.2 4.8 0.00 0.00 0.00 84 1010.9
20260507050312 15 165 3.2 3.2 0.00 0.00 0.00 84 1010.6
20260507045809 15 78 1.6 3.2 0.00 0.00 0.00 83 1011.1
20260507045307 15 70 0.0 1.6 0.00 0.00 0.00 83 1010.7
20260507044803 15 131 3.2 4.8 0.00 0.00 0.00 83 1010.4
20260507044259 15 114 1.6 3.2 0.00 0.00 0.00 84 1010.6
20260507043755 15 35 3.2 4.8 0.00 0.00 0.00 84 1010.7
20260507043252 15 54 0.0 1.6 0.00 0.00 0.00 85 1010.6
20260507042748 15 42 0.0 3.2 0.00 0.00 0.00 85 1010.5
20260507042243 15 19 0.0 3.2 0.00 0.00 0.00 85 1010.4
20260507041741 15 59 0.0 3.2 0.00 0.00 0.00 85 1010.4
20260507041237 15 42 1.6 4.8 0.00 0.00 0.00 85 1009.6
20260507040735 15 58 1.6 1.6 0.00 0.00 0.00 85 1010.1
20260507040230 15 43 0.0 0.0 0.00 0.00 0.00 85 1009.7
20260507035727 15 48 0.0 0.0 0.00 0.15 0.15 85 1009.5
20260507035222 15 60 0.0 0.0 0.00 0.15 0.15 84 1009.6
20260507034720 16 46 0.0 0.0 0.00 0.15 0.15 84 1010.2
20260507034217 16 56 0.0 0.0 0.00 0.15 0.15 82 1010.3
20260507033715 16 46 0.0 0.0 0.00 0.15 0.15 82 1010.8
20260507033212 16 195 6.4 9.7 0.00 0.15 0.15 81 1010.7
20260507032710 16 58 0.0 3.2 0.00 0.15 0.15 82 1010.7
20260507032205 16 52 0.0 3.2 0.00 0.15 0.15 82 1010.6
20260507031702 16 84 0.0 6.4 0.00 0.15 0.15 81 1010.9
20260507031159 16 70 1.6 1.6 0.00 0.15 0.15 81 1011.1
20260507030656 16 62 1.6 1.6 0.00 0.15 0.15 82 1010.6
20260507030154 16 109 1.6 3.2 0.00 0.15 0.15 83 1010.2
20260507025651 16 44 0.0 1.6 0.00 0.15 0.15 82 1010.1
20260507025147 16 58 0.0 0.0 0.00 0.15 0.15 82 1009.8
20260507024645 17 52 0.0 1.6 0.00 0.15 0.15 83 1010.2
20260507024143 17 50 0.0 0.0 0.00 0.15 0.15 82 1010.5